Wind_Speed
7 7 7 7 7 9 10 7 3 3 2 3 5 6 7 6 7 9 5 5 2 5 9 11 10 12 12 10 11 12 12 11 10 10 9 10 10 11 12 11 11 12 12 13 11 9 12 16 15 15 16 16 19 23 24 22 17 16 17 18 18 18 17 15 15 14 13 12 10 9 9 8 8 7 7 6 5 4 3 2 0 2 3 2 2 3
6 7 7 7 4 4 4 2 2 2 3 5 6 6 7 7 6 6 4 3 2 6 8 9 11 13 9 8 10 12 11 11 11 11 10 10 10 10 11 11 11 12 13 13 10 9 13 17 16 16 16 16 20 23 23 20 15 16 17 16 16 16 15 14 14 14 13 12 11 10 10 10 9 8 8 7 5 5 5 5 5 5 6 5 4 4
7 8 8 6 3 3 2 2 4 5 6 6 6 6 6 7 6 5 5 3 4 5 6 7 11 9 6 6 10 11 10 10 11 11 10 11 10 10 10 12 13 14 14 13 12 12 15 19 19 18 17 17 20 23 21 19 17 17 18 17 16 17 15 14 14 14 13 12 11 11 11 12 11 10 10 9 8 8 7 7 7 6 6 6 5 5
6 6 7 7 5 4 5 5 7 6 6 8 7 7 6 7 7 4 6 5 3 4 5 5 9 6 6 6 8 8 7 7 9 10 10 10 10 9 9 11 14 15 15 13 14 15 16 19 20 17 17 17 18 21 22 21 19 18 20 19 18 18 17 15 16 15 13 13 13 11 12 12 11 11 11 10 10 10 9 8 7 6 6 6 5 4
5 3 4 7 7 8 7 6 9 7 7 9 8 8 6 7 7 3 4 4 3 4 5 6 8 6 7 9 9 6 5 6 8 9 10 10 9 8 8 10 12 14 15 14 14 16 16 18 19 18 17 17 19 22 24 23 21 19 20 20 20 20 18 16 17 17 15 14 14 13 13 12 12 12 11 10 10 9 8 8 8 7 7 7 6 5
5 6 6 8 9 10 8 7 10 9 7 8 10 11 9 6 6 2 3 4 5 6 7 8 8 6 9 10 9 7 6 8 9 9 11 11 11 10 9 10 12 13 14 14 14 15 16 16 17 19 19 18 19 22 24 24 21 19 19 19 19 20 20 17 15 16 15 14 13 13 13 13 13 12 11 10 9 9 7 7 8 8 7 7 6 5
3 6 6 7 8 10 9 8 10 10 8 6 9 13 12 8 6 5 4 6 6 3 5 6 6 5 8 9 9 9 8 9 9 9 11 12 12 11 10 11 12 13 14 14 13 14 14 14 15 17 19 19 19 20 23 23 21 20 19 18 19 20 20 19 16 15 15 13 13 13 12 12 13 13 12 10 10 9 8 8 9 9 8 8 7 6
5 6 6 7 8 9 8 7 9 11 9 3 6 9 12 10 8 8 7 7 4 1 5 6 7 4 7 8 8 9 9 10 10 10 11 12 12 12 11 10 11 13 13 13 14 13 13 14 14 15 17 19 18 17 20 22 22 21 19 18 19 20 20 19 18 15 14 14 15 15 13 12 13 12 12 11 10 10 10 11 11 9 8 9 8 7
8 10 9 10 9 7 7 5 8 13 10 2 6 4 7 8 8 8 7 6 3 2 6 9 7 6 6 7 6 8 9 10 11 10 10 11 12 12 12 11 11 12 12 12 13 13 14 13 13 14 15 16 15 16 18 20 20 20 18 17 17 17 18 18 17 15 13 13 15 16 14 13 13 11 12 11 10 10 11 12 12 10 9 9 10 9
5 5 6 10 9 4 3 1 4 13 8 3 5 4 4 5 5 6 7 6 4 6 8 8 6 6 5 8 6 7 8 8 9 9 8 10 11 11 11 11 11 12 12 12 12 13 14 13 12 12 13 14 15 16 16 15 17 17 16 16 15 13 13 14 16 15 12 12 15 15 13 13 13 12 12 11 11 11 11 12 13 12 10 9 10 10
3 1 2 7 6 1 3 3 0 7 4 2 6 7 6 6 5 5 6 4 5 8 7 6 4 6 5 8 7 5 2 3 6 6 6 7 9 10 10 10 11 12 12 12 12 12 13 14 13 12 13 14 14 14 14 14 14 18 19 17 15 14 14 14 14 14 12 11 14 14 11 11 11 12 11 11 12 11 11 12 12 12 11 10 11 11
7 5 3 5 5 2 2 3 2 3 3 4 8 8 6 6 5 5 5 5 7 7 5 5 4 7 6 5 7 6 5 4 3 4 4 3 5 6 7 9 10 11 12 12 13 14 14 14 14 13 13 14 12 10 12 13 12 14 14 11 12 15 17 16 14 12 11 10 13 13 11 10 11 11 11 11 12 12 12 12 12 12 12 12 12 12
8 9 8 6 6 7 7 4 4 5 6 7 8 7 7 6 5 7 7 7 8 4 4 3 3 7 5 3 7 7 6 4 3 2 2 0 1 2 5 8 9 10 11 12 14 15 16 15 14 13 12 11 10 11 11 9 10 11 8 7 8 11 12 14 14 11 10 10 12 13 11 10 10 11 10 10 11 12 12 12 12 12 12 12 13 13
7 9 11 8 6 9 10 6 6 7 7 9 9 8 7 6 6 7 7 7 7 3 4 2 2 7 6 4 7 7 6 5 4 3 2 2 1 1 3 7 8 9 10 11 13 13 15 13 11 10 7 7 18 22 16 9 8 10 8 4 4 7 11 14 12 9 10 11 12 13 11 10 9 10 10 10 9 11 11 11 12 13 13 13 13 13
8 8 11 10 6 10 13 10 6 7 9 10 8 7 7 6 6 6 6 7 8 4 5 4 3 6 7 3 5 6 6 5 6 5 4 3 2 2 4 6 8 8 8 10 11 11 12 11 10 9 8 12 21 22 15 11 9 7 7 5 5 9 13 12 8 7 10 12 13 13 11 10 9 8 10 10 9 9 10 11 12 13 13 14 14 14
9 6 7 6 2 8 12 10 7 8 9 8 6 7 6 5 5 3 1 1 3 4 5 5 4 2 2 3 5 4 5 6 7 7 7 7 6 6 6 7 7 8 9 9 9 10 11 10 10 10 11 14 17 17 13 12 10 5 3 5 9 12 13 9 7 10 11 12 13 13 11 10 9 8 9 10 10 9 10 11 12 13 14 14 14 13
8 5 7 7 3 6 6 5 7 8 5 6 7 7 2 2 4 3 2 2 1 6 4 5 5 3 3 4 5 4 4 7 7 7 9 9 9 8 8 8 8 8 9 9 9 10 12 12 11 11 12 14 15 15 10 12 13 8 3 4 9 13 14 10 8 10 12 11 12 12 9 9 9 8 8 9 10 9 11 12 13 14 14 13 13 13
6 4 6 7 7 5 1 4 6 5 4 4 7 7 4 1 3 4 4 3 4 8 4 5 8 7 6 5 5 4 4 6 7 7 9 9 10 10 9 9 9 9 9 10 11 12 14 15 14 13 11 9 12 13 11 14 15 10 5 5 9 11 11 8 6 8 11 10 11 10 8 8 9 10 8 9 10 10 12 14 14 15 15 13 11 12
6 6 5 5 4 6 6 6 6 4 4 4 2 5 5 4 6 6 6 5 6 8 5 6 8 8 7 5 5 5 4 6 6 7 9 9 11 11 11 11 10 11 11 11 11 12 14 14 11 9 8 7 10 9 10 14 15 12 9 8 12 11 9 7 7 9 9 10 11 10 8 8 10 11 10 11 12 12 13 14 12 15 16 14 12 13
4 6 3 4 3 4 6 7 8 8 6 3 2 5 5 4 4 5 5 5 6 7 6 6 7 7 4 2 5 6 5 5 6 7 8 9 11 11 10 11 12 13 12 11 10 10 12 11 7 3 6 10 10 7 9 13 14 15 14 14 16 13 10 9 8 9 10 11 12 11 10 9 11 12 12 12 13 15 15 13 11 14 16 15 13 13
3 5 4 4 5 5 6 6 6 6 7 7 7 8 6 4 3 4 5 5 6 6 6 6 7 4 2 5 5 6 6 6 7 7 7 9 10 10 11 12 12 13 12 11 11 10 10 12 12 7 8 11 11 9 10 11 11 14 16 16 16 14 12 11 11 11 11 12 13 13 12 10 11 12 13 13 14 17 17 14 12 14 16 16 15 14
3 4 6 4 5 6 3 3 3 4 3 5 7 9 9 7 6 6 7 6 6 7 5 6 7 2 4 3 3 5 4 5 9 8 8 9 10 10 11 11 11 11 11 11 13 12 11 10 10 9 10 10 10 9 8 8 9 11 12 13 13 13 13 13 13 12 12 13 14 15 14 13 12 13 14 14 15 17 18 16 13 13 15 15 15 15
0 2 6 6 5 3 5 6 3 4 4 4 4 6 8 8 9 9 8 6 6 6 4 6 6 1 4 3 3 3 3 5 9 10 9 10 10 9 10 11 11 12 11 11 13 13 12 12 11 11 10 10 10 10 10 12 11 11 12 11 9 11 12 11 10 10 12 13 14 15 16 15 14 14 15 16 16 18 19 18 14 12 13 15 14 15
1 2 5 7 4 2 5 3 2 1 2 6 4 3 4 6 6 6 5 3 5 6 5 6 6 3 4 3 4 4 5 7 9 11 10 9 10 10 11 12 12 13 13 12 13 13 13 14 14 13 12 11 11 12 13 13 13 12 12 9 7 8 8 8 8 9 10 11 12 13 13 13 14 14 15 17 18 19 20 20 16 13 13 15 14 15
1 2 4 7 7 6 6 6 5 4 4 5 3 1 2 3 3 2 2 3 6 8 9 8 5 3 4 4 5 6 8 10 10 11 10 10 11 11 12 13 12 13 13 13 13 14 14 15 15 14 13 12 12 12 11 10 10 10 9 8 7 7 7 7 7 7 7 7 8 9 9 10 11 13 15 18 19 20 20 19 17 15 16 16 16 16
2 2 4 5 7 7 7 5 3 4 4 3 2 2 0 2 3 4 5 7 7 7 9 9 3 5 5 6 8 8 9 10 10 10 10 11 13 13 13 13 13 13 13 13 14 15 15 16 16 15 13 11 11 11 11 9 8 9 8 7 7 6 6 6 5 5 5 5 6 8 9 9 10 12 15 18 19 20 20 19 18 17 18 17 17 17
3 2 4 3 2 1 2 4 3 1 3 4 4 3 2 0 2 4 7 8 6 6 8 6 6 10 7 8 9 8 8 8 9 11 13 14 14 13 13 13 14 14 14 14 14 16 16 17 18 16 13 11 10 10 10 9 8 7 6 6 7 7 6 5 4 4 5 5 6 7 7 8 10 12 14 16 18 20 21 20 18 18 19 19 19 18
3 1 1 4 6 5 6 8 6 3 4 5 5 5 4 2 1 3 3 4 6 6 7 5 12 13 8 8 9 8 8 7 7 10 13 14 14 14 14 14 14 14 14 15 16 17 17 18 18 17 15 14 12 10 9 9 9 8 7 7 7 6 5 5 4 4 4 5 5 6 6 7 9 11 12 14 15 18 22 22 20 19 20 21 20 19
5 5 5 4 6 6 7 8 8 7 7 8 8 9 9 7 5 4 4 7 7 3 2 7 13 12 9 8 8 7 7 8 9 10 12 15 15 15 15 15 15 14 15 17 17 18 18 18 17 17 16 16 15 13 11 10 9 8 8 7 6 6 6 5 4 4 4 4 4 6 6 7 9 10 11 12 12 14 17 19 20 20 21 21 21 21
3 6 9 9 9 7 6 7 8 8 7 7 9 9 9 10 10 9 8 8 8 7 6 10 15 13 8 7 8 8 8 10 11 12 13 15 15 15 15 16 16 16 17 17 18 18 18 19 18 17 16 16 15 15 14 12 11 9 8 8 7 6 6 5 5 5 5 4 3 4 4 5 6 7 9 10 11 12 12 13 16 19 21 21 21 21
1 4 10 9 7 6 4 5 6 6 5 5 5 6 7 7 8 8 7 6 6 7 9 11 13 10 6 7 10 10 10 12 13 13 14 14 13 14 16 17 17 17 18 17 17 18 18 19 19 18 18 17 15 15 15 14 13 11 10 9 8 6 5 5 5 5 5 4 3 3 3 3 3 5 7 7 8 10 11 12 13 15 19 20 21 20
2 4 7 7 6 6 4 3 3 4 5 5 6 4 5 5 5 6 5 5 4 4 8 8 7 7 6 9 11 12 13 14 14 14 15 14 13 14 15 15 16 17 18 18 18 18 18 18 18 18 18 17 16 16 15 14 13 13 12 11 10 8 6 5 5 4 4 4 3 2 2 2 2 3 5 6 6 8 10 11 12 12 14 16 17 17
5 6 6 7 7 5 6 5 3 2 2 5 5 1 4 4 5 6 5 5 5 3 1 3 6 7 9 10 11 12 13 14 14 14 14 15 17 18 17 15 15 17 18 18 18 18 17 17 17 17 17 16 15 15 14 13 13 13 12 11 10 9 8 7 6 5 4 4 3 2 2 1 2 2 4 4 5 6 8 9 10 11 12 14 15 16
5 6 6 6 6 5 7 8 5 4 6 3 0 1 2 3 6 6 5 5 5 4 3 7 9 9 9 10 11 12 13 14 16 16 15 16 17 18 18 16 15 16 18 19 19 18 17 16 16 16 16 15 14 13 13 13 12 12 10 9 9 8 8 7 6 5 5 4 3 2 1 0 1 2 4 4 5 6 7 8 9 11 13 15 16 16
6 6 3 2 4 3 7 8 6 7 5 2 2 3 2 4 10 12 10 7 6 6 8 11 11 10 10 12 14 17 18 17 18 18 18 17 16 17 19 18 17 17 17 18 17 17 17 16 15 15 15 14 14 13 11 11 11 10 9 8 7 7 6 6 5 5 4 3 3 2 2 1 1 3 4 5 6 7 7 8 9 10 11 13 14 15
7 6 2 0 2 2 6 7 5 2 2 4 4 5 6 8 10 11 9 7 6 6 9 10 11 12 13 14 16 18 20 19 19 18 17 17 17 18 18 18 17 17 16 16 16 16 16 15 15 15 14 13 12 12 11 10 10 9 8 7 7 6 5 5 5 4 3 2 2 1 1 2 3 4 5 6 6 6 6 7 6 6 6 6 7 8
4 6 5 4 3 3 6 7 3 2 3 4 5 4 3 3 3 2 4 6 5 4 8 11 11 12 14 14 15 16 17 16 14 13 13 14 15 15 15 15 14 14 14 13 14 13 13 13 13 12 12 11 9 9 9 8 8 9 8 7 7 6 6 5 5 5 4 3 3 3 4 4 4 4 5 7 7 6 7 7 6 6 6 5 6 6
1 2 4 5 4 3 6 5 4 4 4 4 6 4 3 3 3 3 2 6 4 3 9 11 11 13 13 13 13 12 10 8 7 8 9 11 11 11 12 12 12 12 12 11 12 11 10 10 10 10 10 9 8 7 7 6 6 7 7 7 6 6 6 5 4 4 4 4 4 4 5 5 5 5 6 8 8 9 10 10 9 8 8 8 9 10
2 2 1 3 3 4 6 7 6 4 1 4 5 4 3 2 3 3 2 5 5 5 7 9 11 11 11 10 10 6 5 4 5 7 8 9 9 10 10 10 10 11 11 10 10 11 10 10 10 10 10 10 10 9 8 8 8 8 8 8 7 7 7 6 6 6 6 7 7 6 6 7 8 8 8 8 8 9 10 10 10 10 10 10 11 11
2 1 2 3 2 2 5 6 3 1 3 3 2 3 3 2 2 5 5 5 8 8 7 9 10 8 7 7 6 2 2 2 6 8 7 7 8 9 9 9 9 10 10 10 10 10 11 11 11 12 12 13 13 13 13 13 13 13 13 12 12 10 10 11 12 11 10 10 10 9 9 9 10 11 10 9 9 9 10 9 9 10 11 11 11 12
3 1 3 6 5 3 4 5 2 2 3 3 2 3 3 1 3 5 3 6 12 12 9 10 10 8 6 5 4 5 8 9 9 8 7 6 7 7 8 9 9 10 11 12 13 12 12 13 14 14 15 15 16 16 17 18 18 18 18 18 17 15 15 17 18 17 16 15 13 12 11 12 14 14 14 12 11 11 12 12 12 13 13 13 12 13
2 1 2 4 4 3 4 5 3 2 3 3 2 2 1 2 2 2 4 10 14 13 11 11 11 10 9 10 10 10 10 9 9 7 6 6 7 7 8 9 10 11 12 14 15 15 15 14 15 16 16 17 17 17 19 20 20 21 21 22 22 21 22 23 23 22 22 21 20 18 17 17 18 18 17 16 15 13 13 13 14 16 16 15 14 16
3 2 2 1 1 2 4 5 3 1 3 3 2 1 0 1 3 8 11 13 13 13 12 11 11 10 9 10 10 9 8 7 7 6 6 6 8 9 10 11 12 13 14 15 15 16 17 16 16 17 17 17 18 18 19 20 20 21 22 23 24 24 26 27 26 26 26 25 25 24 23 22 21 21 21 21 21 20 19 16 15 16 17 18 18 19
4 4 1 2 2 3 4 3 1 1 4 4 3 4 7 7 9 12 13 13 12 10 10 10 10 9 9 8 7 7 6 6 5 6 6 7 9 10 10 12 13 14 14 15 15 16 17 15 16 17 16 17 17 18 18 19 20 21 22 23 24 25 27 28 28 28 29 28 28 28 27 27 27 26 25 25 24 25 25 23 20 19 20 20 20 21
5 4 2 3 4 3 3 4 4 4 6 7 8 11 13 13 11 11 11 12 11 9 8 9 9 8 8 6 5 5 5 4 5 6 7 8 9 11 11 12 14 14 15 14 14 15 16 15 15 16 16 16 17 17 18 19 19 21 22 22 23 25 26 27 28 29 30 30 29 28 28 28 29 29 30 29 28 28 28 27 23 21 22 22 22 23
5 3 2 2 6 7 7 8 8 8 9 10 11 13 13 13 12 11 11 11 10 9 9 8 7 6 6 5 4 4 3 4 5 6 7 7 8 10 13 13 14 15 15 14 13 15 16 15 14 15 16 16 17 17 18 18 19 20 21 22 23 24 26 27 28 29 30 30 30 30 30 29 29 29 29 30 31 30 29 28 25 23 23 24 25 25
3 1 1 4 5 3 4 7 8 9 10 11 11 12 12 12 12 11 11 11 10 8 8 6 5 5 5 5 5 4 4 5 6 6 8 9 9 11 13 13 13 13 13 13 13 14 14 13 13 14 15 15 15 15 15 15 15 15 16 17 19 20 22 25 27 29 30 30 30 29 29 29 29 29 28 28 29 29 28 28 27 25 24 25 26 26
3 1 2 4 3 2 5 9 9 9 9 8 8 9 9 10 10 10 9 9 8 6 6 5 5 5 5 5 5 5 5 6 7 8 9 9 10 10 10 11 11 11 12 12 13 12 12 12 12 13 13 13 12 11 11 11 11 11 12 13 14 15 17 19 22 25 28 29 30 30 28 26 27 28 28 29 30 29 26 26 27 28 27 26 25 25
1 1 1 3 4 5 7 9 9 8 8 7 7 8 8 8 9 8 7 7 6 5 5 4 4 4 4 3 4 5 5 5 7 8 8 8 8 8 8 9 10 10 11 11 11 10 10 10 10 10 10 10 10 10 10 11 11 12 12 13 13 14 15 16 17 19 21 23 26 28 29 27 27 27 26 26 27 26 25 25 25 27 30 30 27 26
2 2 2 3 4 3 5 10 9 4 4 8 9 8 7 7 7 6 5 4 3 3 3 3 3 3 3 3 4 4 5 5 7 8 8 8 8 7 7 7 8 9 9 9 8 8 8 8 9 10 10 10 10 11 12 13 13 14 14 15 15 16 17 17 17 18 18 19 20 23 24 25 25 25 24 24 24 24 24 26 28 31 33 34 33 32
2 2 1 1 1 3 6 11 7 2 3 9 10 8 7 5 4 4 3 2 2 2 2 2 2 3 3 3 3 4 5 6 7 8 8 8 7 6 6 6 7 7 7 7 7 7 8 9 9 10 11 11 12 12 13 15 16 17 17 17 17 17 18 18 18 19 18 18 18 19 20 22 23 23 23 24 25 24 23 24 28 33 35 34 34 34
Wind_Direction
203 201 200 211 202 195 198 217 272 350 311 244 209 218 224 210 202 201 156 108 215 233 221 220 220 228 225 194 177 177 179 190 191 184 186 183 186 194 198 198 187 184 180 172 192 207 175 167 169 173 178 179 186 191 193 195 190 182 181 177 175 172 165 168 169 161 159 155 148 138 135 138 132 125 122 123 132 136 139 155 148 82 102 116 127 132
211 219 208 206 191 173 186 216 300 290 254 235 224 217 213 219 205 163 138 123 174 240 229 214 224 226 214 180 170 175 181 191 195 191 192 189 189 194 196 194 186 178 169 159 171 187 171 168 173 178 184 185 185 190 193 193 187 178 179 179 175 170 164 170 170 157 151 148 141 137 139 139 133 127 125 125 126 121 117 116 107 98 101 98 92 109
209 225 214 186 110 95 141 180 218 229 236 228 223 223 212 211 199 131 126 156 170 234 228 201 221 215 171 174 176 178 190 193 195 197 197 195 193 194 191 187 184 175 166 164 169 174 172 176 183 187 192 193 187 188 191 190 186 177 177 181 179 174 168 172 171 156 148 143 136 141 144 139 135 132 133 132 122 114 108 102 103 106 107 102 87 86
204 219 207 168 134 175 186 188 214 223 229 227 219 223 212 189 205 182 148 157 168 240 260 216 213 190 146 174 175 175 192 189 195 204 201 200 199 197 189 184 185 179 171 174 177 177 179 183 189 195 199 200 193 191 191 192 191 182 181 186 181 177 174 173 169 156 152 150 140 140 137 131 131 127 124 123 116 111 106 99 101 105 109 111 101 86
209 107 145 175 180 207 208 193 212 223 216 217 220 230 222 185 212 232 126 143 169 201 239 223 207 188 169 180 175 162 175 189 199 206 206 206 202 195 189 184 187 186 181 183 184 184 185 185 190 196 201 203 197 193 191 193 195 188 187 189 183 182 181 176 172 162 158 157 148 141 135 129 126 121 118 119 113 104 100 102 105 105 109 113 108 95
219 104 133 190 194 209 219 205 210 222 216 206 213 230 243 216 214 234 136 184 213 192 192 212 215 185 171 183 179 162 174 196 198 203 208 207 202 199 193 185 188 191 190 191 191 193 191 183 187 195 199 204 202 195 194 196 198 194 193 193 188 190 187 182 177 166 161 159 148 139 136 135 130 127 128 127 118 112 110 108 106 107 111 110 104 100
214 134 170 199 196 208 222 220 205 210 226 206 189 211 229 233 227 233 216 214 232 188 157 214 238 181 169 182 177 170 184 195 197 205 208 206 205 204 197 187 186 189 192 196 196 200 198 186 190 196 198 205 204 197 198 200 201 200 200 199 197 197 194 187 181 170 165 161 146 135 135 138 138 137 137 131 120 119 119 109 104 105 108 108 106 107
196 177 195 207 211 217 220 219 193 201 230 192 140 195 216 221 223 224 224 225 236 112 143 215 248 215 176 169 163 171 186 194 198 206 208 205 204 202 198 190 185 186 190 195 196 201 202 195 195 195 198 206 205 201 204 204 204 205 206 207 204 203 201 193 184 173 169 165 149 139 141 145 143 138 131 123 116 115 113 109 109 107 106 114 117 114
184 197 200 205 215 220 211 203 178 198 224 103 99 198 213 212 219 215 222 229 224 209 196 201 226 231 178 141 145 174 190 197 196 199 202 200 199 198 198 193 185 185 186 189 193 198 200 198 198 198 200 203 203 207 208 204 204 205 208 212 207 205 204 199 192 178 170 168 154 146 149 148 142 135 122 115 111 110 110 108 112 116 115 119 122 118
153 209 217 212 215 210 181 84 179 203 215 85 120 179 176 190 210 213 227 226 202 226 220 184 200 239 183 146 162 183 193 193 185 190 192 193 197 195 195 193 187 184 182 184 186 190 196 199 198 198 200 203 210 214 207 198 201 204 210 212 204 199 197 194 192 183 173 169 161 152 150 146 137 130 120 113 111 110 111 108 109 116 117 118 121 121
132 151 257 229 235 297 81 62 205 215 215 128 179 184 174 184 193 212 229 226 213 224 211 169 196 249 203 166 168 163 151 139 150 167 170 183 198 196 194 192 189 186 180 179 178 178 191 197 196 200 206 208 211 204 184 179 195 206 212 214 210 209 207 199 192 186 181 175 166 154 143 138 131 126 121 115 114 115 116 114 111 118 123 125 125 121
206 201 216 215 224 255 182 149 131 194 203 209 206 196 189 189 191 207 207 210 228 224 173 147 198 239 223 174 146 116 79 65 93 137 139 164 191 194 199 194 190 188 179 176 174 172 182 190 192 198 206 208 200 176 162 168 195 211 215 225 222 213 209 205 198 191 191 185 167 152 141 132 125 123 121 117 118 119 121 121 119 121 126 130 128 121
215 219 214 196 190 213 225 194 150 174 199 212 212 204 202 198 197 209 204 208 226 213 128 136 209 228 220 122 110 105 85 63 43 47 51 9 175 180 201 198 190 184 177 174 171 170 176 184 191 196 209 213 183 144 131 159 205 221 226 231 209 192 189 189 188 187 196 195 171 156 146 134 128 124 122 123 124 125 126 125 123 125 130 133 132 127
202 212 213 207 190 204 226 220 174 177 192 205 207 205 213 210 202 211 210 213 219 175 115 129 222 222 205 112 88 84 73 66 63 55 20 344 340 187 194 194 184 178 176 170 166 167 171 178 185 187 194 157 134 129 124 139 189 211 226 227 166 175 190 186 183 184 195 201 181 164 154 141 135 129 127 132 131 130 130 129 128 131 136 139 139 136
210 206 202 207 187 184 210 232 224 193 192 206 213 214 226 230 221 224 227 227 224 188 137 151 209 223 206 126 71 73 81 83 88 95 92 86 102 131 155 168 168 167 161 155 156 158 162 168 168 166 163 128 113 111 118 133 153 186 236 249 199 201 206 197 194 196 199 203 189 174 164 153 147 138 136 140 141 138 134 132 136 137 139 142 142 141
229 223 171 170 134 177 203 225 232 219 200 198 222 225 230 245 237 229 292 310 259 221 171 176 210 241 185 115 90 92 98 92 94 103 106 107 111 118 124 133 143 144 142 146 150 145 144 148 150 152 156 138 103 85 104 126 124 132 217 219 199 204 212 217 219 209 208 207 192 181 172 163 160 154 149 151 152 147 137 135 139 140 140 143 144 144
231 224 138 143 172 194 217 220 211 234 217 174 211 221 203 295 261 231 173 97 284 246 197 180 210 194 161 153 126 122 108 95 96 100 103 107 110 115 116 121 132 134 136 145 140 130 124 120 123 129 135 129 97 81 103 111 100 102 124 175 195 208 214 225 229 212 210 208 195 188 180 175 174 167 162 165 164 155 145 142 141 141 142 142 144 147
236 226 151 175 198 166 195 227 197 236 254 200 211 200 128 46 249 244 238 190 213 236 200 180 214 206 192 181 141 147 126 97 94 97 103 108 106 103 103 111 122 126 132 137 130 124 118 107 108 119 127 112 86 91 112 106 101 106 107 155 196 216 218 225 245 223 210 203 198 194 190 191 190 181 175 177 175 165 154 147 143 143 143 142 147 152
232 235 161 172 198 142 157 209 196 195 241 271 238 178 172 223 215 208 232 223 214 230 214 191 209 213 208 188 158 173 138 94 99 105 108 106 99 96 98 105 111 117 127 130 127 129 122 107 100 110 124 107 88 104 121 110 114 125 127 165 191 207 223 230 246 239 220 206 200 199 202 202 198 194 186 182 182 175 162 155 151 148 144 145 153 157
216 243 190 150 159 154 173 206 210 191 188 232 247 196 206 244 234 211 218 229 230 232 223 203 206 214 209 123 125 151 130 111 119 114 108 97 90 91 96 105 111 116 124 122 121 129 134 147 161 129 110 110 102 107 114 111 130 152 165 185 186 190 212 230 248 247 228 216 208 209 215 210 203 202 197 190 187 182 173 168 167 157 148 149 157 160
196 236 226 152 145 190 200 207 230 219 189 199 212 208 207 213 236 243 225 229 248 243 226 220 222 203 103 55 82 113 116 133 137 123 112 101 92 88 94 110 118 118 119 114 110 112 126 159 177 159 122 117 105 88 92 112 145 169 183 191 185 186 206 228 249 251 234 226 223 222 226 223 213 208 203 199 194 190 185 179 175 165 157 157 161 163
194 222 230 196 187 212 195 82 356 319 277 227 220 216 216 211 214 229 224 214 233 251 247 238 235 159 79 37 65 94 109 140 143 137 122 109 101 91 96 112 117 112 110 107 110 113 114 131 146 134 123 121 110 93 96 128 156 171 177 178 180 188 201 221 241 246 236 232 230 231 234 234 223 211 207 205 201 200 197 189 184 177 169 166 166 168
353 234 230 226 225 192 100 76 38 348 327 275 255 240 230 224 220 231 234 210 208 232 249 250 244 134 76 42 59 91 129 140 145 148 136 118 107 96 97 106 107 105 106 106 108 111 110 114 116 113 115 119 118 119 131 147 159 165 159 157 175 191 200 217 229 230 230 231 233 235 237 238 229 214 210 210 206 206 205 199 196 193 184 178 175 176
5 261 237 227 224 146 116 124 135 50 262 236 232 245 250 241 233 246 257 218 208 216 220 236 232 151 86 56 62 101 132 142 149 151 145 127 111 108 110 110 110 111 109 106 104 103 104 109 113 113 114 117 120 124 133 143 150 152 151 156 177 190 198 210 214 218 224 226 229 230 230 232 227 215 213 212 208 211 211 207 208 209 200 191 185 184
136 315 278 225 214 203 193 194 183 182 215 224 207 174 285 272 233 235 251 232 234 225 221 237 230 120 88 76 81 99 122 137 143 144 151 142 123 121 122 117 116 114 110 104 98 96 95 96 101 107 108 108 113 119 123 130 137 143 153 161 164 173 187 193 196 204 208 209 216 220 218 218 218 214 212 210 209 213 214 212 212 213 207 199 193 190
102 5 323 247 227 223 217 214 208 200 184 162 123 116 50 253 215 220 224 228 233 210 212 241 230 114 102 94 92 97 112 124 128 130 139 134 122 121 121 119 119 116 113 107 94 90 90 87 90 98 102 101 108 121 128 129 132 141 154 156 150 159 170 175 179 183 187 194 205 215 217 209 206 208 206 206 208 211 214 216 215 214 212 207 202 199
86 35 8 348 339 327 344 10 -0 289 164 137 124 110 78 263 246 255 235 233 239 206 209 225 150 132 122 102 98 100 106 114 119 121 123 120 117 121 124 123 121 117 113 107 94 89 88 85 87 93 98 100 105 116 126 128 128 130 136 139 139 149 160 166 168 169 182 192 198 213 218 209 205 206 205 206 209 210 213 217 218 218 217 214 211 209
109 108 25 36 54 49 34 34 30 46 96 93 93 86 63 66 209 247 255 295 299 244 219 155 130 131 118 104 105 105 107 108 106 111 119 121 122 125 127 124 120 113 105 99 93 89 88 87 89 92 93 96 100 105 109 116 121 117 114 122 129 139 150 148 143 152 176 187 197 209 213 212 211 209 210 213 215 216 218 220 221 222 222 221 218 218
143 153 170 137 104 81 53 43 41 58 78 74 71 71 61 63 77 79 47 10 350 293 195 124 120 112 99 108 110 101 103 108 108 112 119 122 123 127 127 124 119 109 99 93 90 89 88 88 91 94 94 93 93 96 98 102 109 108 107 111 111 112 119 119 121 133 144 159 185 198 202 209 209 207 213 218 220 225 228 228 226 224 223 222 223 227
159 158 164 154 139 120 82 60 48 47 62 70 65 60 58 63 68 72 67 50 49 63 80 103 104 91 86 104 100 91 95 101 108 115 118 118 120 122 120 117 112 105 99 95 91 90 89 89 92 97 98 97 94 95 95 94 97 100 101 102 100 102 109 110 113 123 131 141 159 173 182 199 204 205 215 219 220 224 227 229 226 221 219 221 226 232
304 170 166 159 152 148 118 82 63 42 35 35 27 26 38 53 60 61 54 43 57 81 93 101 95 83 86 99 97 98 99 100 104 107 109 113 115 114 110 107 106 102 100 97 93 92 90 89 90 90 90 92 93 93 91 87 89 94 96 98 99 99 104 108 106 109 120 129 131 133 150 179 197 205 213 216 216 218 218 222 222 218 218 222 227 233
184 164 172 186 198 191 171 130 91 54 21 331 308 346 28 36 52 55 41 15 19 89 121 122 102 97 114 110 102 98 93 89 86 86 89 90 90 94 94 96 100 100 97 96 92 89 87 84 84 84 84 84 85 86 85 83 86 89 91 94 96 94 95 97 98 100 109 117 116 124 152 177 192 209 218 216 213 216 217 220 223 223 225 227 230 234
175 160 171 204 218 195 166 151 118 73 317 279 267 32 54 76 103 86 53 29 12 6 134 124 101 111 129 124 108 98 87 77 70 71 75 74 72 73 72 73 80 86 86 85 83 81 79 76 75 76 78 79 80 81 83 85 87 85 83 82 81 81 80 80 83 89 97 105 115 135 160 190 207 229 242 237 233 232 228 227 227 227 229 231 232 234
184 185 184 203 219 186 146 135 138 203 227 246 188 115 58 100 124 109 71 45 30 19 62 92 105 118 124 119 108 98 88 80 75 72 72 74 74 73 69 64 62 67 71 72 71 70 69 69 70 70 70 70 71 74 78 84 83 77 75 74 73 74 72 69 72 77 85 92 96 112 122 62 268 260 265 262 256 250 247 244 239 237 241 242 242 243
178 195 201 227 231 172 134 142 177 212 222 20 57 149 143 116 115 105 88 64 61 89 106 108 114 116 108 105 104 100 95 87 79 72 67 70 74 75 76 74 66 60 59 60 62 62 60 61 64 66 64 61 60 60 63 70 68 60 59 61 61 64 63 61 62 66 78 87 79 78 74 33 306 279 276 271 265 260 254 252 250 253 255 252 249 251
173 173 148 222 233 157 160 185 201 188 105 68 87 127 132 136 132 115 93 70 67 103 121 115 113 114 112 111 110 109 106 96 81 72 67 67 69 68 69 72 70 65 60 57 60 62 59 55 54 56 55 53 56 56 56 61 58 48 44 47 46 44 44 45 44 40 44 52 35 354 330 314 284 274 274 271 271 267 260 255 256 257 254 239 234 239
180 177 175 187 201 210 211 206 168 118 147 133 121 122 112 125 143 118 95 89 68 93 125 124 122 121 121 122 121 121 121 110 89 75 69 66 67 67 63 60 61 62 60 56 55 56 56 52 48 46 43 41 46 50 50 54 52 41 32 30 32 28 25 29 28 22 15 9 346 310 292 282 273 271 265 261 262 259 252 250 248 243 229 204 191 190
56 173 188 200 204 225 231 215 182 196 202 140 124 118 53 18 331 316 104 113 97 106 129 131 130 129 131 133 135 141 147 134 102 82 73 66 65 68 67 61 56 53 51 47 43 40 36 34 31 26 20 15 12 15 19 19 22 21 14 9 11 10 8 6 357 350 340 324 316 311 296 279 267 265 264 263 262 256 251 249 243 231 211 188 177 177
53 49 152 211 194 202 230 228 215 221 191 100 118 111 65 5 279 273 201 146 139 133 135 138 136 135 138 140 145 168 208 185 124 90 72 65 62 59 57 54 49 44 37 30 27 23 15 10 7 359 349 343 339 338 338 334 332 333 336 336 337 345 349 330 304 293 285 277 275 278 277 269 259 255 256 258 258 251 246 244 236 221 199 184 182 189
119 139 205 225 203 190 232 238 226 141 71 83 88 52 25 346 242 231 221 167 147 143 137 135 135 132 133 150 164 180 348 73 106 93 75 67 62 52 44 38 31 24 14 2 359 358 352 345 341 335 330 327 325 322 318 315 313 313 313 309 309 317 319 303 293 289 283 276 272 271 268 261 253 246 241 244 250 242 230 226 227 221 209 202 201 206
113 129 216 228 220 199 216 230 226 79 85 85 34 13 4 320 215 224 215 129 133 137 126 116 115 108 102 113 118 84 65 69 84 87 74 60 50 37 28 19 10 3 353 342 337 336 334 330 325 323 320 318 315 313 310 308 306 305 304 300 299 301 298 292 289 288 286 283 279 276 270 261 252 243 235 234 239 238 229 224 226 226 223 216 207 203
71 74 212 222 226 214 209 219 219 105 75 52 42 55 0 251 207 147 106 117 125 124 116 107 97 88 83 77 78 86 85 78 76 71 51 37 26 12 4 356 350 345 337 331 328 324 322 321 318 314 312 310 307 305 303 301 299 298 296 294 293 293 290 288 286 284 283 282 280 277 273 267 261 253 245 238 236 238 239 236 234 231 227 222 215 211
12 299 212 153 0 251 204 209 227 163 72 20 354 144 119 317 126 116 115 120 117 109 106 99 85 77 80 79 79 83 81 71 60 45 31 16 359 351 346 339 335 334 329 327 326 320 318 319 315 311 310 308 305 302 299 297 295 293 291 290 289 288 287 286 285 284 282 279 277 275 273 271 268 264 258 251 245 243 244 244 243 237 230 228 226 222
13 328 249 95 16 283 219 200 292 91 82 31 13 89 87 84 110 121 118 115 113 108 102 93 82 74 73 77 79 75 66 54 33 15 4 352 344 341 337 333 332 331 329 329 327 322 321 322 316 313 312 309 305 302 299 296 293 290 288 288 287 285 284 284 283 282 280 278 276 274 272 271 270 268 264 261 256 252 251 250 247 240 235 234 230 225
35 20 21 60 52 27 43 76 80 96 96 76 75 91 94 96 109 117 115 113 109 100 92 91 87 75 65 66 71 63 48 28 9 357 351 348 344 339 337 336 335 334 334 334 330 325 325 323 319 316 314 310 307 303 299 297 294 291 289 287 285 283 283 283 282 280 278 276 274 272 270 268 268 267 265 263 261 258 256 255 251 242 237 235 230 228
56 31 -0 74 107 92 73 82 100 107 104 98 95 94 92 93 96 98 101 102 93 83 85 90 86 74 60 52 53 49 30 15 7 2 360 357 350 343 342 344 342 339 339 339 332 327 327 328 326 323 319 315 311 307 303 299 295 291 289 286 283 281 279 279 279 279 279 278 275 272 270 266 264 263 263 262 261 259 257 256 252 245 240 235 232 230
77 42 74 115 138 134 99 105 112 110 107 105 98 90 83 83 85 86 89 91 88 84 82 74 62 49 32 26 32 38 30 20 13 11 5 356 349 346 345 346 346 343 341 340 335 331 333 335 332 328 325 322 318 314 310 307 301 298 296 292 287 284 279 276 275 273 273 274 274 273 271 267 264 261 258 257 257 256 254 252 250 246 242 237 233 231
85 118 125 119 123 109 115 124 125 116 114 115 106 100 96 91 89 87 85 84 82 73 59 46 40 35 21 13 23 37 38 23 9 4 -0 352 349 350 348 346 347 345 342 341 338 336 337 334 330 328 328 327 327 325 323 320 316 313 310 307 303 299 292 286 281 276 272 271 269 267 265 264 263 262 259 256 255 254 251 248 246 244 242 238 235 233
124 183 127 116 121 111 119 138 143 133 131 139 132 118 114 109 103 99 94 89 84 72 56 38 27 28 25 22 31 37 38 24 8 0 357 353 350 348 347 348 348 345 343 340 338 338 339 336 335 337 335 333 332 330 327 322 319 316 314 310 307 303 299 294 290 286 282 279 275 272 268 264 262 261 260 258 255 253 250 245 241 239 239 239 237 234
238 165 129 171 174 149 138 151 157 151 140 150 148 132 120 117 115 110 101 90 84 78 65 45 34 40 44 44 42 40 31 18 6 359 354 352 349 345 347 351 348 345 345 345 347 351 351 346 345 342 338 335 331 327 323 320 316 313 310 306 303 301 297 293 290 288 285 283 280 278 275 271 267 262 259 257 255 252 250 248 247 245 243 240 238 236
343 50 44 255 121 77 119 141 145 41 92 138 148 143 131 128 123 112 103 91 83 77 66 67 78 80 66 45 30 27 19 3 355 352 348 344 341 339 342 345 343 342 346 350 352 352 348 343 341 338 338 338 333 328 324 321 316 311 306 301 298 296 293 290 287 285 282 281 278 274 271 271 270 266 261 256 253 250 248 249 253 253 249 243 240 240
Height
1480 1479 1479 1476 1472 1471 1471 1471 1470 1470 1470 1469 1468 1469 1467 1466 1466 1463 1465 1469 1470 1472 1470 1468 1470 1470 1467 1468 1472 1477 1480 1481 1482 1483 1484 1486 1488 1489 1491 1494 1497 1499 1500 1500 1500 1503 1506 1507 1508 1509 1511 1512 1513 1514 1515 1516 1518 1521 1524 1526 1527 1528 1529 1530 1532 1534 1536 1537 1539 1539 1541 1543 1544 1545 1545 1546 1547 1547 1547 1547 1547 1547 1547 1548 1548 1548
1480 1478 1474 1470 1469 1470 1472 1473 1474 1475 1475 1473 1471 1470 1468 1467 1464 1462 1467 1470 1471 1473 1469 1466 1469 1467 1466 1468 1471 1475 1478 1480 1480 1482 1484 1485 1487 1489 1490 1493 1496 1498 1499 1500 1501 1502 1505 1506 1507 1509 1510 1512 1513 1513 1515 1516 1518 1520 1522 1523 1524 1525 1527 1529 1531 1533 1535 1536 1538 1539 1541 1543 1544 1545 1546 1546 1546 1546 1547 1547 1547 1547 1547 1548 1548 1548
1480 1476 1470 1468 1471 1474 1476 1476 1477 1477 1476 1475 1472 1470 1469 1465 1463 1465 1469 1470 1472 1473 1467 1466 1468 1467 1468 1470 1471 1474 1476 1478 1480 1481 1483 1484 1485 1487 1489 1492 1494 1497 1498 1500 1502 1503 1504 1505 1505 1507 1509 1511 1512 1513 1515 1516 1517 1519 1521 1521 1523 1525 1526 1529 1530 1532 1534 1535 1537 1539 1540 1542 1543 1544 1545 1546 1546 1546 1547 1547 1547 1547 1547 1547 1548 1548
1477 1471 1466 1469 1473 1476 1477 1478 1478 1477 1476 1474 1471 1470 1468 1463 1463 1467 1470 1470 1471 1471 1468 1467 1467 1467 1472 1473 1472 1475 1476 1477 1480 1481 1482 1484 1485 1486 1488 1490 1492 1495 1497 1499 1501 1502 1503 1504 1505 1507 1510 1512 1513 1514 1515 1515 1516 1518 1520 1521 1523 1524 1526 1528 1530 1531 1533 1534 1536 1538 1539 1540 1542 1543 1544 1545 1546 1546 1547 1547 1547 1547 1547 1547 1548 1548
1469 1466 1466 1470 1473 1474 1476 1478 1478 1476 1474 1471 1470 1468 1464 1461 1462 1464 1467 1469 1469 1470 1470 1467 1468 1469 1471 1473 1473 1475 1478 1478 1480 1481 1482 1483 1484 1486 1488 1489 1491 1493 1496 1498 1499 1501 1502 1504 1507 1509 1511 1513 1514 1513 1514 1514 1515 1516 1519 1521 1523 1524 1526 1528 1529 1530 1531 1533 1535 1536 1538 1540 1541 1542 1544 1545 1546 1546 1547 1547 1547 1547 1547 1547 1547 1548
1465 1466 1469 1471 1472 1473 1474 1475 1475 1474 1470 1469 1469 1467 1462 1461 1462 1464 1466 1469 1469 1470 1467 1465 1472 1472 1466 1468 1471 1474 1478 1479 1479 1479 1480 1482 1483 1484 1486 1488 1490 1492 1494 1496 1498 1499 1501 1504 1507 1509 1511 1513 1513 1511 1512 1513 1514 1516 1518 1520 1522 1523 1525 1527 1528 1529 1530 1533 1534 1536 1537 1539 1540 1542 1544 1545 1545 1546 1547 1547 1547 1547 1547 1547 1547 1548
1464 1467 1469 1470 1472 1472 1472 1471 1469 1470 1468 1466 1465 1463 1463 1462 1464 1466 1465 1467 1468 1466 1463 1463 1470 1472 1467 1466 1468 1472 1476 1477 1477 1478 1478 1479 1481 1482 1484 1486 1489 1491 1493 1495 1497 1498 1500 1502 1505 1507 1510 1512 1510 1509 1510 1512 1513 1516 1517 1520 1522 1523 1525 1527 1528 1529 1530 1532 1534 1535 1537 1539 1540 1542 1543 1544 1545 1546 1546 1546 1546 1546 1547 1547 1547 1548
1463 1468 1470 1470 1471 1470 1471 1468 1465 1467 1467 1463 1459 1460 1462 1462 1464 1466 1464 1464 1461 1461 1465 1463 1462 1467 1469 1466 1466 1469 1474 1474 1475 1476 1476 1476 1478 1480 1482 1485 1487 1489 1492 1494 1496 1497 1499 1500 1502 1505 1507 1508 1508 1507 1509 1511 1513 1516 1518 1520 1522 1523 1525 1527 1528 1529 1531 1533 1534 1535 1537 1539 1540 1542 1542 1543 1544 1545 1546 1546 1546 1547 1547 1547 1547 1548
1461 1466 1468 1468 1470 1468 1464 1461 1462 1465 1464 1460 1460 1460 1460 1460 1462 1462 1462 1461 1457 1463 1471 1462 1458 1467 1468 1466 1468 1470 1472 1474 1473 1472 1473 1474 1475 1478 1481 1483 1486 1488 1491 1493 1495 1496 1498 1499 1500 1502 1503 1504 1505 1506 1508 1510 1512 1515 1518 1520 1522 1524 1526 1528 1530 1531 1532 1534 1534 1535 1537 1538 1540 1541 1541 1543 1544 1545 1545 1546 1546 1546 1547 1547 1547 1547
1462 1464 1464 1464 1465 1461 1459 1459 1461 1462 1462 1460 1461 1461 1460 1461 1461 1461 1461 1459 1461 1471 1473 1462 1461 1468 1469 1465 1468 1472 1472 1472 1471 1469 1470 1471 1474 1477 1479 1482 1485 1487 1490 1492 1493 1495 1497 1498 1499 1500 1501 1502 1503 1505 1507 1509 1511 1515 1517 1519 1521 1523 1525 1529 1532 1535 1535 1535 1535 1535 1537 1538 1539 1540 1541 1542 1543 1544 1545 1545 1546 1546 1547 1547 1547 1547
1462 1464 1464 1462 1461 1458 1459 1463 1463 1462 1462 1462 1461 1460 1461 1461 1460 1462 1459 1458 1469 1477 1469 1462 1462 1469 1473 1466 1462 1468 1469 1466 1468 1469 1469 1471 1474 1476 1478 1481 1483 1486 1488 1490 1492 1494 1496 1498 1499 1499 1500 1501 1503 1504 1505 1508 1512 1514 1516 1518 1520 1522 1525 1530 1534 1537 1538 1537 1536 1536 1537 1538 1539 1539 1540 1541 1542 1543 1544 1545 1546 1546 1547 1547 1547 1547
1460 1463 1462 1460 1460 1461 1461 1462 1464 1464 1463 1463 1460 1457 1463 1465 1463 1466 1465 1467 1479 1479 1466 1461 1462 1468 1474 1467 1459 1465 1468 1466 1468 1469 1470 1473 1474 1476 1478 1480 1482 1485 1487 1489 1491 1493 1495 1497 1497 1498 1499 1500 1502 1502 1504 1510 1514 1515 1517 1520 1522 1523 1525 1530 1535 1538 1539 1539 1538 1537 1538 1538 1539 1539 1540 1541 1542 1543 1544 1545 1546 1546 1547 1547 1548 1548
1460 1459 1457 1458 1460 1461 1460 1460 1463 1465 1463 1462 1458 1457 1467 1472 1474 1478 1476 1475 1477 1474 1467 1463 1465 1469 1470 1464 1461 1465 1469 1470 1471 1471 1472 1474 1474 1476 1478 1479 1481 1483 1485 1488 1490 1492 1493 1496 1497 1498 1500 1500 1500 1503 1509 1515 1516 1516 1519 1521 1523 1525 1527 1530 1534 1536 1538 1540 1539 1538 1538 1538 1538 1539 1540 1541 1541 1542 1543 1544 1545 1546 1547 1548 1548 1548
1462 1457 1454 1457 1458 1458 1458 1457 1460 1464 1462 1461 1457 1458 1466 1471 1482 1488 1479 1475 1474 1471 1467 1465 1469 1472 1466 1463 1465 1467 1471 1473 1472 1474 1474 1474 1476 1477 1478 1479 1481 1483 1485 1487 1489 1491 1493 1496 1497 1499 1501 1501 1500 1505 1511 1516 1518 1518 1519 1521 1525 1529 1531 1531 1533 1534 1537 1539 1539 1538 1538 1538 1538 1539 1540 1541 1541 1542 1543 1544 1545 1546 1548 1548 1549 1549
1463 1461 1454 1454 1454 1453 1455 1452 1452 1454 1456 1455 1449 1451 1459 1461 1473 1481 1474 1471 1472 1469 1469 1471 1474 1471 1465 1467 1468 1467 1472 1473 1473 1475 1475 1476 1477 1477 1478 1479 1481 1483 1485 1487 1489 1492 1494 1496 1499 1500 1500 1501 1502 1505 1509 1511 1514 1518 1520 1522 1525 1529 1531 1531 1532 1533 1535 1537 1538 1538 1537 1538 1538 1539 1540 1541 1542 1542 1543 1544 1545 1546 1547 1548 1549 1549
1459 1457 1446 1449 1452 1450 1452 1450 1447 1450 1454 1454 1448 1451 1458 1453 1456 1470 1475 1473 1472 1472 1472 1474 1471 1463 1461 1467 1466 1467 1471 1471 1473 1475 1475 1477 1477 1478 1480 1480 1482 1485 1486 1489 1491 1493 1495 1497 1499 1500 1499 1500 1502 1505 1507 1507 1510 1515 1519 1521 1523 1527 1530 1530 1530 1532 1533 1535 1536 1536 1537 1537 1538 1539 1540 1540 1542 1543 1543 1544 1545 1546 1547 1548 1549 1550
1460 1455 1444 1449 1453 1449 1451 1450 1448 1452 1454 1455 1455 1455 1455 1448 1450 1466 1478 1477 1477 1478 1473 1470 1469 1464 1464 1467 1465 1467 1470 1470 1472 1473 1473 1477 1477 1478 1480 1481 1484 1486 1487 1490 1492 1494 1496 1498 1499 1500 1500 1502 1503 1505 1507 1505 1507 1513 1517 1520 1522 1525 1528 1529 1529 1530 1532 1533 1534 1535 1536 1537 1538 1539 1540 1541 1542 1543 1544 1544 1545 1546 1547 1547 1549 1550
1456 1454 1446 1447 1451 1450 1453 1452 1450 1452 1451 1453 1457 1452 1450 1454 1455 1461 1472 1477 1480 1481 1473 1470 1472 1469 1469 1472 1467 1466 1470 1470 1472 1472 1474 1476 1477 1479 1481 1482 1485 1486 1488 1491 1492 1495 1496 1497 1498 1499 1502 1504 1504 1507 1508 1505 1505 1511 1516 1518 1520 1522 1525 1527 1527 1528 1530 1531 1532 1534 1535 1536 1537 1539 1540 1541 1542 1543 1544 1545 1545 1546 1546 1547 1548 1550
1453 1456 1450 1446 1449 1451 1451 1452 1453 1452 1450 1451 1451 1446 1451 1463 1464 1462 1471 1478 1479 1481 1476 1472 1471 1466 1466 1468 1466 1467 1470 1471 1472 1472 1474 1475 1477 1480 1482 1484 1486 1487 1490 1492 1493 1495 1495 1497 1499 1499 1501 1504 1505 1509 1509 1505 1506 1512 1516 1517 1518 1520 1522 1524 1525 1526 1528 1529 1531 1532 1534 1536 1537 1538 1540 1541 1542 1543 1545 1545 1545 1545 1546 1547 1548 1549
1452 1458 1455 1448 1448 1450 1449 1451 1452 1451 1451 1452 1450 1447 1449 1457 1460 1459 1463 1466 1471 1477 1476 1476 1474 1466 1461 1463 1465 1468 1470 1471 1473 1474 1475 1477 1480 1482 1484 1486 1488 1489 1491 1493 1494 1495 1495 1497 1500 1500 1500 1502 1505 1509 1509 1507 1508 1513 1515 1516 1517 1518 1519 1521 1523 1525 1526 1527 1529 1531 1533 1535 1536 1538 1539 1540 1542 1543 1544 1545 1546 1545 1546 1547 1548 1549
1452 1458 1458 1451 1449 1451 1449 1447 1446 1446 1448 1451 1452 1452 1452 1454 1455 1457 1458 1457 1462 1468 1472 1478 1477 1467 1466 1471 1470 1471 1472 1473 1475 1476 1478 1480 1483 1485 1487 1489 1490 1492 1493 1494 1495 1496 1496 1497 1499 1500 1501 1502 1504 1508 1510 1509 1510 1513 1513 1514 1515 1516 1517 1520 1522 1524 1525 1526 1528 1530 1532 1534 1536 1537 1538 1540 1541 1542 1544 1545 1546 1546 1546 1546 1548 1549
1453 1456 1457 1453 1451 1450 1447 1445 1446 1446 1445 1446 1448 1447 1449 1452 1455 1463 1465 1458 1457 1461 1464 1470 1472 1469 1475 1478 1474 1475 1476 1474 1476 1479 1481 1483 1485 1488 1490 1491 1493 1494 1495 1495 1495 1497 1499 1499 1499 1499 1500 1501 1503 1505 1509 1511 1512 1513 1513 1513 1514 1515 1517 1519 1522 1523 1525 1526 1527 1529 1531 1533 1535 1536 1538 1539 1540 1542 1543 1544 1545 1546 1546 1546 1547 1548
1453 1454 1456 1454 1449 1447 1448 1449 1450 1450 1447 1446 1447 1444 1443 1445 1449 1460 1465 1459 1458 1461 1459 1462 1467 1473 1479 1479 1476 1478 1478 1477 1479 1481 1483 1485 1487 1490 1492 1493 1494 1495 1496 1497 1497 1498 1500 1501 1501 1500 1500 1501 1503 1505 1508 1511 1512 1512 1513 1513 1515 1516 1517 1520 1522 1523 1524 1525 1527 1528 1530 1532 1534 1535 1537 1538 1539 1541 1542 1543 1544 1545 1546 1546 1547 1548
1456 1456 1457 1454 1448 1446 1449 1450 1450 1451 1450 1448 1447 1447 1447 1446 1447 1452 1454 1453 1458 1462 1462 1465 1469 1474 1480 1479 1478 1478 1478 1479 1481 1482 1485 1487 1489 1491 1493 1494 1495 1496 1497 1498 1498 1499 1501 1502 1503 1503 1503 1503 1504 1506 1508 1510 1511 1512 1513 1515 1516 1518 1519 1520 1521 1522 1523 1525 1526 1527 1529 1530 1532 1534 1535 1537 1538 1540 1541 1542 1543 1544 1545 1546 1546 1547
1461 1463 1461 1458 1457 1456 1455 1454 1453 1452 1450 1449 1450 1452 1454 1451 1450 1453 1451 1452 1458 1458 1459 1464 1468 1474 1480 1480 1478 1478 1478 1480 1481 1484 1487 1488 1490 1493 1494 1496 1497 1497 1498 1498 1499 1500 1501 1502 1503 1504 1505 1505 1505 1507 1508 1510 1512 1513 1515 1516 1518 1519 1520 1521 1522 1522 1524 1525 1525 1526 1528 1529 1531 1533 1534 1536 1537 1539 1540 1541 1542 1543 1544 1545 1545 1546
1467 1473 1468 1463 1463 1464 1462 1459 1457 1453 1449 1451 1455 1457 1458 1455 1454 1455 1453 1456 1461 1458 1456 1459 1466 1479 1484 1480 1479 1480 1478 1481 1483 1486 1488 1489 1492 1494 1495 1497 1498 1498 1499 1500 1500 1501 1501 1502 1503 1504 1506 1507 1507 1508 1509 1510 1512 1513 1515 1516 1518 1520 1520 1521 1522 1523 1524 1524 1525 1526 1527 1528 1530 1531 1533 1535 1536 1537 1539 1540 1541 1542 1542 1543 1544 1545
1470 1477 1474 1470 1466 1465 1465 1462 1458 1454 1452 1455 1457 1458 1459 1459 1459 1456 1453 1455 1456 1456 1457 1456 1462 1478 1485 1481 1482 1483 1482 1485 1486 1488 1491 1492 1494 1496 1497 1498 1499 1499 1501 1501 1502 1502 1502 1503 1504 1506 1508 1508 1509 1510 1510 1511 1512 1513 1515 1516 1518 1520 1520 1521 1522 1523 1524 1524 1525 1526 1526 1528 1529 1531 1532 1533 1534 1536 1537 1538 1539 1540 1541 1542 1542 1543
1471 1479 1478 1476 1472 1468 1467 1464 1459 1457 1456 1458 1460 1460 1460 1460 1460 1460 1461 1460 1456 1456 1460 1459 1460 1475 1485 1484 1486 1489 1490 1491 1491 1491 1494 1495 1497 1498 1499 1499 1500 1501 1502 1502 1503 1503 1503 1504 1505 1507 1509 1510 1511 1512 1512 1512 1513 1513 1515 1516 1518 1519 1519 1520 1521 1523 1524 1524 1525 1526 1527 1528 1529 1530 1531 1532 1533 1534 1535 1536 1537 1538 1539 1540 1541 1542
1466 1475 1477 1476 1475 1472 1469 1467 1463 1461 1461 1463 1463 1463 1463 1461 1461 1465 1469 1468 1463 1461 1463 1463 1466 1478 1486 1488 1491 1495 1496 1496 1495 1496 1496 1497 1498 1499 1500 1501 1502 1502 1502 1503 1503 1504 1505 1506 1506 1507 1509 1510 1512 1513 1514 1514 1515 1515 1516 1517 1518 1518 1519 1520 1521 1523 1525 1525 1526 1526 1527 1527 1527 1528 1529 1530 1531 1532 1532 1533 1534 1535 1537 1538 1539 1540
1459 1468 1472 1470 1472 1473 1473 1472 1471 1468 1467 1467 1467 1467 1466 1465 1466 1469 1470 1470 1468 1469 1470 1470 1476 1486 1490 1492 1494 1497 1498 1498 1498 1498 1498 1499 1501 1501 1502 1503 1503 1503 1504 1504 1505 1506 1506 1507 1507 1508 1509 1510 1512 1513 1514 1515 1516 1517 1517 1518 1519 1520 1520 1522 1522 1523 1525 1525 1525 1525 1526 1526 1526 1527 1528 1528 1529 1530 1530 1531 1532 1533 1535 1536 1537 1538
1460 1467 1469 1466 1469 1474 1474 1475 1475 1473 1472 1471 1471 1471 1469 1469 1471 1472 1474 1474 1472 1474 1476 1478 1484 1492 1494 1494 1496 1498 1499 1499 1500 1500 1500 1502 1504 1504 1504 1504 1504 1505 1505 1506 1507 1508 1508 1509 1509 1510 1510 1511 1513 1513 1514 1515 1516 1517 1518 1518 1520 1520 1521 1522 1522 1523 1524 1525 1525 1525 1525 1526 1526 1526 1527 1527 1528 1528 1529 1530 1530 1531 1533 1534 1535 1536
1461 1468 1470 1467 1469 1472 1473 1476 1474 1473 1474 1475 1474 1475 1475 1476 1478 1480 1483 1484 1480 1478 1478 1479 1484 1492 1495 1496 1498 1500 1501 1502 1502 1503 1504 1505 1506 1507 1507 1507 1507 1507 1507 1508 1508 1509 1510 1511 1511 1511 1512 1513 1514 1515 1515 1516 1517 1517 1518 1519 1520 1520 1521 1521 1522 1523 1524 1524 1524 1525 1525 1526 1526 1526 1526 1526 1527 1527 1528 1529 1529 1530 1531 1532 1533 1534
1458 1466 1470 1468 1468 1469 1472 1474 1473 1475 1479 1478 1476 1479 1482 1482 1485 1488 1489 1490 1488 1485 1481 1479 1485 1493 1495 1495 1499 1501 1503 1504 1505 1506 1507 1508 1508 1509 1511 1512 1512 1510 1509 1508 1509 1510 1511 1512 1512 1512 1513 1514 1515 1515 1516 1517 1517 1517 1518 1519 1520 1521 1521 1522 1522 1523 1523 1524 1524 1524 1524 1525 1525 1525 1525 1526 1526 1526 1527 1527 1528 1529 1529 1529 1530 1531
1456 1460 1462 1462 1465 1469 1472 1474 1478 1481 1481 1479 1480 1484 1485 1482 1484 1489 1492 1493 1492 1490 1487 1487 1492 1496 1495 1497 1500 1502 1505 1507 1508 1509 1510 1510 1511 1511 1513 1515 1515 1513 1511 1510 1510 1511 1512 1513 1514 1514 1514 1514 1515 1515 1516 1516 1517 1518 1519 1520 1521 1521 1522 1523 1523 1523 1524 1524 1524 1524 1524 1524 1524 1525 1525 1525 1525 1526 1526 1527 1527 1527 1527 1527 1528 1529
1458 1458 1460 1461 1463 1467 1473 1477 1481 1482 1478 1480 1484 1485 1484 1483 1484 1488 1493 1494 1493 1492 1493 1493 1496 1498 1499 1501 1502 1503 1507 1510 1511 1511 1511 1512 1513 1513 1514 1515 1515 1514 1513 1511 1511 1512 1513 1514 1514 1514 1514 1515 1515 1515 1516 1516 1517 1518 1519 1520 1520 1521 1522 1523 1523 1523 1524 1524 1524 1524 1525 1525 1524 1524 1524 1524 1525 1525 1525 1526 1525 1525 1526 1526 1526 1527
1457 1458 1464 1467 1466 1469 1473 1473 1476 1481 1483 1486 1487 1484 1483 1484 1483 1484 1491 1495 1494 1494 1494 1496 1498 1501 1503 1504 1505 1505 1508 1510 1512 1513 1514 1514 1514 1514 1515 1515 1515 1514 1513 1513 1513 1513 1513 1514 1515 1515 1515 1516 1516 1516 1516 1517 1518 1519 1519 1520 1520 1521 1521 1522 1523 1523 1523 1524 1524 1525 1525 1525 1525 1524 1524 1524 1524 1524 1525 1525 1524 1524 1524 1524 1524 1524
1456 1457 1462 1466 1469 1470 1467 1465 1472 1481 1484 1486 1488 1487 1486 1486 1484 1482 1488 1496 1498 1495 1495 1497 1500 1502 1504 1506 1506 1507 1507 1509 1511 1514 1516 1516 1515 1516 1516 1517 1517 1516 1515 1515 1514 1513 1513 1514 1514 1515 1516 1516 1516 1516 1517 1517 1518 1519 1519 1520 1520 1521 1521 1521 1522 1522 1522 1523 1524 1524 1524 1524 1524 1524 1524 1523 1524 1524 1524 1524 1524 1524 1523 1523 1523 1523
1459 1458 1458 1462 1468 1468 1462 1464 1471 1475 1476 1481 1487 1489 1489 1489 1489 1486 1487 1495 1500 1498 1497 1499 1500 1502 1505 1505 1506 1508 1507 1506 1509 1514 1517 1517 1517 1517 1518 1518 1518 1517 1517 1516 1516 1515 1515 1515 1515 1516 1516 1516 1516 1516 1517 1517 1518 1518 1519 1519 1519 1520 1521 1521 1521 1521 1521 1522 1522 1522 1523 1523 1523 1523 1523 1523 1523 1523 1523 1523 1523 1523 1523 1523 1523 1523
1463 1462 1460 1461 1466 1467 1465 1464 1465 1468 1477 1485 1488 1489 1490 1490 1491 1488 1485 1491 1500 1501 1499 1501 1501 1503 1505 1505 1506 1507 1504 1501 1506 1514 1517 1517 1518 1518 1518 1518 1518 1518 1517 1516 1516 1516 1516 1516 1517 1517 1517 1517 1516 1516 1516 1517 1517 1518 1518 1518 1519 1519 1519 1519 1519 1519 1520 1520 1520 1521 1521 1521 1521 1521 1521 1522 1522 1521 1521 1522 1521 1521 1522 1522 1523 1523
1466 1465 1465 1465 1468 1470 1469 1466 1465 1474 1487 1492 1490 1491 1491 1490 1491 1488 1482 1486 1498 1502 1501 1502 1503 1504 1506 1506 1506 1507 1504 1502 1508 1515 1518 1518 1518 1518 1518 1518 1518 1517 1517 1516 1516 1516 1517 1517 1517 1517 1517 1516 1516 1516 1516 1516 1517 1517 1517 1517 1518 1518 1518 1518 1518 1518 1519 1519 1519 1519 1520 1519 1519 1519 1519 1520 1520 1520 1520 1521 1521 1521 1521 1521 1522 1522
1468 1468 1468 1467 1469 1473 1474 1471 1472 1482 1492 1494 1492 1493 1492 1491 1490 1486 1482 1489 1499 1502 1502 1504 1505 1506 1507 1507 1506 1508 1510 1511 1513 1517 1518 1518 1518 1518 1518 1518 1518 1517 1517 1517 1517 1517 1517 1517 1517 1517 1516 1516 1516 1516 1515 1515 1516 1516 1516 1516 1517 1517 1517 1516 1516 1517 1517 1517 1518 1518 1518 1517 1517 1517 1517 1517 1518 1518 1518 1519 1519 1519 1520 1520 1521 1521
1471 1471 1468 1466 1468 1471 1473 1473 1473 1482 1492 1495 1494 1494 1493 1491 1488 1487 1491 1498 1501 1502 1504 1506 1506 1507 1509 1509 1509 1511 1514 1515 1516 1517 1517 1518 1518 1518 1518 1518 1518 1518 1517 1517 1517 1517 1517 1517 1516 1516 1516 1515 1515 1515 1515 1515 1515 1515 1515 1515 1515 1515 1514 1514 1514 1515 1514 1515 1515 1515 1515 1515 1515 1515 1515 1516 1516 1516 1516 1517 1517 1517 1518 1519 1519 1519
1476 1473 1467 1471 1476 1473 1471 1473 1476 1483 1493 1496 1494 1494 1494 1492 1492 1495 1500 1502 1502 1504 1506 1507 1508 1510 1510 1511 1512 1513 1515 1516 1516 1517 1517 1518 1518 1518 1517 1517 1517 1517 1516 1516 1516 1515 1515 1515 1515 1514 1514 1514 1514 1514 1514 1513 1513 1513 1512 1512 1512 1512 1511 1511 1511 1511 1511 1512 1512 1512 1512 1512 1512 1512 1513 1513 1513 1514 1514 1515 1515 1515 1516 1516 1517 1517
1482 1477 1471 1477 1484 1478 1472 1478 1486 1491 1495 1496 1495 1495 1496 1497 1498 1501 1501 1502 1505 1507 1507 1508 1511 1512 1512 1513 1514 1515 1516 1516 1517 1517 1517 1517 1517 1517 1517 1516 1516 1515 1515 1515 1514 1513 1513 1513 1513 1512 1512 1512 1511 1511 1511 1511 1510 1510 1510 1509 1509 1508 1508 1507 1507 1507 1507 1508 1508 1509 1509 1509 1509 1509 1509 1510 1510 1511 1511 1512 1513 1513 1513 1514 1514 1515
1486 1486 1481 1484 1490 1488 1485 1490 1496 1498 1498 1498 1498 1498 1500 1501 1502 1503 1503 1505 1507 1508 1509 1511 1512 1513 1514 1515 1515 1515 1516 1516 1516 1517 1516 1516 1516 1515 1515 1515 1514 1514 1513 1513 1512 1512 1511 1511 1510 1510 1509 1509 1509 1508 1508 1507 1507 1506 1506 1506 1505 1505 1504 1504 1503 1503 1503 1504 1504 1505 1505 1505 1505 1506 1506 1506 1507 1507 1507 1508 1509 1509 1510 1510 1511 1511
1490 1490 1488 1488 1492 1495 1496 1499 1500 1500 1500 1501 1502 1503 1503 1504 1505 1506 1506 1508 1509 1510 1511 1512 1513 1514 1515 1515 1515 1516 1516 1516 1516 1516 1516 1515 1515 1514 1514 1514 1513 1513 1512 1512 1511 1510 1509 1509 1508 1508 1507 1506 1506 1505 1505 1504 1504 1503 1502 1502 1501 1501 1500 1500 1499 1499 1499 1499 1499 1500 1500 1501 1501 1501 1502 1502 1502 1502 1503 1504 1504 1505 1506 1506 1507 1507
1490 1490 1489 1490 1491 1493 1497 1501 1502 1502 1503 1504 1504 1505 1506 1506 1507 1508 1508 1509 1510 1511 1512 1512 1513 1514 1514 1514 1515 1515 1515 1515 1516 1515 1515 1515 1514 1514 1513 1513 1512 1512 1511 1510 1509 1508 1507 1507 1507 1506 1505 1504 1503 1503 1502 1501 1500 1500 1499 1498 1497 1497 1496 1496 1495 1494 1494 1494 1495 1495 1496 1496 1496 1496 1497 1497 1497 1498 1498 1499 1500 1501 1501 1501 1502 1502
1490 1490 1490 1491 1492 1493 1496 1501 1503 1503 1505 1505 1505 1506 1507 1508 1508 1509 1509 1510 1511 1512 1512 1513 1513 1513 1514 1514 1514 1514 1515 1515 1515 1514 1514 1514 1513 1513 1513 1512 1512 1511 1510 1509 1508 1507 1507 1506 1505 1505 1504 1503 1502 1501 1500 1500 1499 1498 1497 1496 1496 1495 1494 1493 1492 1490 1490 1490 1490 1490 1490 1491 1491 1491 1491 1492 1492 1493 1493 1494 1495 1495 1496 1497 1498 1498
1490 1490 1491 1492 1493 1495 1498 1501 1503 1504 1505 1507 1507 1507 1508 1509 1510 1511 1511 1512 1513 1513 1513 1513 1513 1513 1514 1513 1514 1514 1515 1515 1514 1514 1514 1514 1513 1513 1512 1512 1512 1511 1510 1509 1508 1507 1506 1506 1505 1504 1503 1502 1502 1501 1500 1500 1499 1498 1497 1495 1494 1493 1492 1490 1489 1487 1487 1486 1486 1485 1485 1485 1486 1486 1486 1487 1487 1488 1488 1489 1489 1489 1490 1492 1493 1493
1490 1489 1491 1491 1492 1493 1495 1498 1501 1500 1501 1504 1507 1508 1509 1510 1511 1511 1512 1513 1513 1514 1514 1514 1514 1514 1513 1513 1514 1514 1515 1515 1515 1514 1514 1514 1513 1513 1512 1512 1512 1511 1510 1509 1508 1507 1506 1505 1504 1504 1503 1502 1501 1500 1499 1498 1497 1496 1495 1494 1492 1491 1489 1488 1486 1485 1484 1483 1483 1482 1482 1481 1481 1481 1482 1482 1482 1483 1483 1483 1483 1483 1484 1486 1487 1488
1492 1491 1492 1490 1490 1492 1494 1498 1501 1499 1499 1503 1507 1509 1510 1511 1511 1512 1513 1513 1513 1514 1513 1514 1514 1514 1514 1514 1514 1514 1514 1515 1514 1514 1514 1513 1513 1512 1512 1512 1511 1511 1510 1509 1508 1507 1507 1505 1504 1503 1502 1501 1500 1499 1498 1497 1495 1494 1492 1490 1489 1487 1486 1485 1483 1481 1480 1480 1479 1478 1478 1477 1477 1477 1477 1477 1478 1478 1479 1478 1478 1478 1479 1481 1482 1484